CW0925 Weather Reports


Display with metric or nautical units.
time (UTC)temp
F
wind
direction
speed
MPH
gust
MPH
rain 1hr
in
rain 24hr
in
rain mn
in
humidity
%
barometer
mb
20260506185321 86 327 4.0 7.0 0.00 0.00 0.00 77 1018.3
20260506184356 86 289 2.0 6.0 0.00 0.00 0.00 78 1018.4
20260506183351 85 268 5.0 7.0 0.00 0.00 0.00 77 1018.6
20260506182331 85 217 3.0 9.0 0.00 0.00 0.00 78 1018.7
20260506181325 85 272 2.0 8.0 0.00 0.00 0.00 78 1018.9
20260506180332 85 295 2.0 9.0 0.00 0.00 0.00 78 1018.9
20260506175318 86 272 2.0 7.0 0.00 0.00 0.00 76 1019.0
20260506174353 85 288 4.0 8.0 0.00 0.00 0.00 77 1019.0
20260506173328 85 276 3.0 8.0 0.00 0.00 0.00 75 1019.0
20260506172327 86 300 2.0 7.0 0.00 0.00 0.00 77 1019.0
20260506171346 85 303 4.0 8.0 0.00 0.00 0.00 76 1019.0
20260506170332 85 272 2.0 7.0 0.00 0.00 0.00 78 1019.1
20260506165354 85 297 3.0 7.0 0.00 0.00 0.00 77 1019.1
20260506164329 85 262 4.0 7.0 0.00 0.00 0.00 78 1019.3
20260506163328 85 282 3.0 7.0 0.00 0.00 0.00 77 1019.3
20260506162323 85 257 1.0 7.0 0.00 0.00 0.00 78 1019.2
20260506161319 84 255 3.0 9.0 0.00 0.00 0.00 78 1019.1
20260506160346 84 238 3.0 8.0 0.00 0.00 0.00 78 1019.1
20260506155333 85 301 4.0 8.0 0.00 0.00 0.00 77 1019.2
20260506154329 84 272 5.0 8.0 0.00 0.00 0.00 78 1019.2
20260506153325 85 274 3.0 7.0 0.00 0.00 0.00 76 1019.1
20260506152326 84 324 4.0 8.0 0.00 0.00 0.00 77 1019.1
20260506151322 84 274 4.0 10.0 0.00 0.00 0.00 78 1019.1
20260506150409 84 269 4.0 9.0 0.00 0.00 0.00 78 1018.9
20260506145331 84 265 4.0 9.0 0.00 0.00 0.00 77 1018.8
20260506144330 85 268 4.0 11.0 0.00 0.00 0.00 76 1018.7
20260506143345 84 303 4.0 8.0 0.00 0.00 0.00 76 1018.7
20260506142320 84 265 3.0 9.0 0.00 0.00 0.00 76 1018.7
20260506141335 83 348 4.0 10.0 0.00 0.00 0.00 76 1018.7
20260506140345 83 273 5.0 11.0 0.00 0.00 0.00 77 1018.7
20260506135347 83 270 4.0 8.0 0.00 0.00 0.00 77 1018.6
20260506134321 83 239 3.0 8.0 0.00 0.00 0.00 76 1018.5
20260506133356 83 312 4.0 9.0 0.00 0.00 0.00 78 1018.5
20260506132336 83 267 6.0 11.0 0.00 0.00 0.00 76 1018.5
20260506131331 83 268 5.0 9.0 0.00 0.00 0.00 75 1018.3
20260506130337 83 302 2.0 8.0 0.00 0.00 0.00 77 1018.3
20260506125324 83 344 3.0 10.0 0.00 0.00 0.00 77 1018.2
20260506124320 83 278 5.0 9.0 0.00 0.00 0.00 78 1018.1
20260506123335 83 286 0.0 2.0 0.00 0.00 0.00 81 1018.2
20260506122332 82 258 1.0 4.0 0.00 0.00 0.00 80 1018.1
20260506121330 82 263 0.0 1.0 0.00 0.00 0.00 82 1018.1
20260506120337 80 190 0.0 2.0 0.00 0.00 0.00 84 1018.1
20260506115319 79 123 0.0 0.0 0.00 0.00 0.00 86 1018.0
20260506114318 79 123 0.0 0.0 0.00 0.00 0.00 86 1018.1
20260506113334 78 116 0.0 0.0 0.00 0.00 0.00 87 1018.1
20260506112350 77 124 0.0 0.0 0.00 0.00 0.00 88 1018.1
20260506111344 77 127 0.0 0.0 0.00 0.00 0.00 88 1017.9
20260506110334 77 131 0.0 0.0 0.00 0.00 0.00 88 1017.8
20260506105317 77 130 0.0 0.0 0.00 0.00 0.00 88 1017.6
20260506104332 77 129 0.0 0.0 0.00 0.00 0.00 88 1017.5
20260506103332 77 122 0.0 0.0 0.00 0.00 0.00 87 1017.5
20260506102328 76 152 0.0 0.0 0.00 0.00 0.00 87 1017.3
20260506101324 76 155 0.0 1.0 0.00 0.00 0.00 87 1017.3
20260506100350 76 126 0.0 0.0 0.00 0.00 0.00 87 1017.1
20260506095317 77 126 0.0 1.0 0.00 0.00 0.00 86 1017.2
20260506094332 77 115 1.0 2.0 0.00 0.00 0.00 86 1017.2
20260506093327 77 113 0.0 2.0 0.00 0.00 0.00 86 1017.1
20260506092348 77 106 0.0 2.0 0.00 0.00 0.00 86 1017.0
20260506091322 77 97 1.0 2.0 0.00 0.00 0.00 86 1016.9
20260506090408 77 116 0.0 0.0 0.00 0.00 0.00 87 1016.8
20260506085329 77 130 0.0 0.0 0.00 0.00 0.00 87 1016.8
20260506084348 77 122 0.0 0.0 0.00 0.00 0.00 86 1016.9
20260506083323 77 130 0.0 0.0 0.00 0.00 0.00 87 1016.7
20260506082319 77 159 0.0 0.0 0.00 0.00 0.00 86 1016.5
20260506081335 76 159 0.0 0.0 0.00 0.00 0.00 86 1016.4
20260506080345 77 159 0.0 0.0 0.00 0.00 0.00 85 1016.6
20260506073322 77 107 0.0 0.0 0.00 0.00 0.00 85 1016.6
20260506072319 77 107 0.0 0.0 0.00 0.00 0.00 86 1016.5
20260506071354 77 106 0.0 0.0 0.00 0.00 0.00 85 1016.5
20260506070340 77 105 0.0 0.0 0.00 0.00 0.00 85 1016.5
20260506062317 77 153 0.0 0.0 0.00 0.00 0.00 86 1016.9
20260506061334 77 153 0.0 0.0 0.00 0.00 0.00 86 1017.0
20260506060401 77 162 0.0 0.0 0.00 0.00 0.00 86 1017.1
20260506051348 77 151 2.0 3.0 0.00 0.00 0.00 85 1017.6
20260506050357 77 111 2.0 3.0 0.00 0.00 0.00 86 1017.7
20260506044354 78 105 1.0 3.0 0.00 0.00 0.00 86 1017.9
20260506043328 78 113 2.0 5.0 0.00 0.00 0.00 85 1018.1
20260506042328 78 176 3.0 5.0 0.00 0.00 0.00 85 1018.1
20260506041324 79 99 3.0 4.0 0.00 0.00 0.00 84 1018.2
20260506040350 78 123 1.0 4.0 0.00 0.00 0.00 83 1018.0
20260506035332 79 155 2.0 4.0 0.00 0.00 0.00 84 1018.1
20260506034351 79 173 3.0 8.0 0.00 0.00 0.00 83 1018.2
20260506033346 80 170 0.0 3.0 0.00 0.00 0.00 82 1018.0
20260506032341 81 57 2.0 4.0 0.00 0.00 0.00 82 1017.7
20260506031316 81 55 2.0 6.0 0.00 0.00 0.00 81 1017.7
20260506030347 81 26 2.0 5.0 0.00 0.00 0.00 80 1017.5
20260506025329 80 23 2.0 4.0 0.00 0.00 0.00 80 1017.4
20260506024325 81 59 3.0 5.0 0.00 0.00 0.00 80 1017.3
20260506023323 80 22 3.0 5.0 0.00 0.00 0.00 81 1017.2
20260506022321 81 24 2.0 5.0 0.00 0.00 0.00 81 1017.1
20260506021335 80 8 1.0 5.0 0.00 0.00 0.00 80 1017.1
20260506020342 80 22 0.0 5.0 0.00 0.00 0.00 82 1016.9
20260506015328 80 19 0.0 3.0 0.00 0.00 0.00 83 1016.9
20260506014321 80 5 0.0 1.0 0.00 0.00 0.00 81 1016.8
20260506013318 80 64 0.0 3.0 0.00 0.00 0.00 81 1016.6
20260506012319 80 63 1.0 3.0 0.00 0.00 0.00 83 1016.6
20260506011334 80 72 0.0 1.0 0.00 0.00 0.00 84 1016.6
20260506010341 80 68 0.0 2.0 0.00 0.00 0.00 84 1016.6
20260506005344 80 118 0.0 2.0 0.00 0.00 0.00 83 1016.5
20260506004322 80 105 0.0 1.0 0.00 0.00 0.00 83 1016.4
20260506003317 80 132 0.0 2.0 0.00 0.00 0.00 83 1016.3
20260506002335 81 118 2.0 3.0 0.00 0.00 0.00 82 1016.3
20260506001334 81 123 0.0 3.0 0.00 0.00 0.00 81 1016.2
20260506000340 81 120 2.0 4.0 0.00 0.00 0.00 81 1016.2
20260505235342 81 84 2.0 5.0 0.00 0.00 0.00 79 1016.0
20260505234356 82 92 4.0 8.0 0.00 0.00 0.00 77 1015.9
20260505233334 82 84 2.0 5.0 0.00 0.00 0.00 77 1015.8
20260505232351 83 102 1.0 6.0 0.00 0.00 0.00 77 1015.8
20260505231324 83 151 3.0 8.0 0.00 0.00 0.00 76 1015.8
20260505230332 84 105 3.0 8.0 0.00 0.00 0.00 75 1015.8
20260505225317 84 118 4.0 10.0 0.00 0.00 0.00 76 1015.9
20260505224332 84 80 3.0 10.0 0.00 0.00 0.00 76 1015.9
20260505223327 84 111 4.0 9.0 0.00 0.00 0.00 76 1015.9
20260505222328 85 129 5.0 11.0 0.00 0.00 0.00 77 1015.8
20260505221325 85 84 5.0 12.0 0.00 0.00 0.00 75 1015.8
20260505220331 86 77 5.0 10.0 0.00 0.00 0.00 74 1015.6
20260505215353 87 11 0.0 3.0 0.00 0.00 0.00 77 1015.7
20260505214332 86 18 0.0 1.0 0.00 0.00 0.00 79 1015.6
20260505213327 85 254 0.0 4.0 0.00 0.00 0.00 82 1015.6
20260505212344 84 267 3.0 6.0 0.00 0.00 0.00 81 1015.6
20260505211318 84 261 1.0 6.0 0.00 0.00 0.00 81 1015.6
20260505210348 84 246 1.0 4.0 0.00 0.00 0.00 80 1015.8
20260505205330 84 312 0.0 4.0 0.00 0.00 0.00 82 1015.8
20260505204325 84 284 0.0 4.0 0.00 0.00 0.00 83 1015.9
20260505203324 83 267 3.0 7.0 0.00 0.00 0.00 82 1015.9
20260505202321 84 254 0.0 6.0 0.00 0.00 0.00 82 1015.9
20260505201317 84 228 0.0 5.0 0.00 0.00 0.00 76 1015.9
20260505200344 84 252 2.0 4.0 0.00 0.00 0.00 76 1016.0
20260505195330 84 74 1.0 4.0 0.00 0.00 0.00 78 1016.0
20260505194327 84 151 0.0 4.0 0.00 0.00 0.00 79 1016.2